Preview of NWS' New Version of Forecast
This preview is not operational and should not be used for support decisions.

Regional Weather Roundup (RWR)

Issued by Gray - Portland, ME (GYX)

                            
000
ASUS41 KGYX 242005
RWRGYX
WEATHER ROUNDUP FOR MAINE AND NEW HAMPSHIRE
NATIONAL WEATHER SERVICE GRAY ME
400 PM EDT MON JUN 24 2019

MEZ002-005-006-010-012-015-018-020-021-024-026-027-029-242100-
MAINE
  
CITY           SKY/WX    TMP DP  RH WIND       PRES   REMARKS
PORTLAND       FAIR      69  49  48 S12       29.84S                  
SANFORD        FAIR      74  50  42 SE9       29.83F                  
BAR HARBOR     FAIR      70  49  47 SW9       29.83R                  
WISCASSET      FAIR      70  42  36 SE9       29.85S                  
ROCKLAND       FAIR      65  43  44 S9        29.85S                  
FRYEBURG       FAIR      82  42  24 VRB5      29.81F                  
LEWISTONAUBURN FAIR      80  43  26 W6        29.82S                  
AUGUSTA        FAIR      77  44  30 E5        29.82F                  
WATERVILLE     FAIR      77  44  30 VRB5      29.80S                  
BANGOR         FAIR      76  41  28 N8        29.82S                  
GREENVILLE       N/A     70  37  29 N10       29.83S                  
MILLINOCKET    FAIR      74  39  28 W9G17     29.82S                  
HOULTON        FAIR      73  39  29 NW14G20   29.78R                  
PRESQUE ISLE   FAIR      70  38  31 NW12G24   29.81R                  
FRENCHVILLE    FAIR      70  37  29 N15       29.82S                  
CARIBOU        FAIR      70  38  31 NW12G23   29.80R                  
$$

NHZ002-005-008-009-011-012-014-242100-
NEW HAMPSHIRE
  
CITY           SKY/WX    TMP DP  RH WIND       PRES   REMARKS
PORTSMOUTH     PTSUNNY   71  48  42 SE13      29.82                   
ROCHESTER      FAIR      79  54  41 SE5       29.82S                  
NASHUA         FAIR      84  50  30 NW8       29.82S                  
MANCHESTER     PTSUNNY   86  42  21 N6        29.80F                  
CONCORD        FAIR      83  46  27 NW8       29.82F                  
LACONIA        FAIR      81  44  27 W8        29.83F                  
PLYMOUTH       FAIR      80  43  26 W10       29.83S                  
BERLIN         FAIR      78  42  27 MISG      29.84F                  
WHITEFIELD     FAIR      78  40  25 MISG      29.85F                  
JAFFREY        FAIR      83  48  29 MISG      29.86S                  
KEENE          FAIR      83  52  34 NW10      29.83F                  
LEBANON        FAIR      83  48  29 NW8       29.83S                  
MT WASHINGTON  PTSUNNY   50  32  50 NW26G37     N/A                   
$$

VTZ005-007-008-242100-
VERMONT
  
CITY           SKY/WX    TMP DP  RH WIND       PRES   REMARKS
ST JOHNSBURY     N/A     80  40  23 MISG      29.82F                  
MONTPELIER     FAIR      77  42  28 N5        29.90S                  
BURLINGTON     FAIR      80  42  25 N7        29.84F                  
$$

MAZ007-012-024-CTZ003-RIZ002-NYZ038-NYZ072-242100-
SOUTHERN NEW ENGLAND AND NY
  
CITY           SKY/WX    TMP DP  RH WIND       PRES   REMARKS
BOSTON         PTSUNNY   74  46  36 E17       29.82F                  
WORCESTER      FAIR      79  56  45 SW9       29.86F                  
NANTUCKET      FAIR      71  59  65 SW10      29.86S                  
PROVIDENCE     PTSUNNY   85  54  34 W6        29.82F                  
HARTFORD       PTSUNNY   85  52  32 W9        29.83S                  
ALBANY         PTSUNNY   82  54  37 CALM      29.83F                  
NEW YORK CITY  PTSUNNY   85  52  32 SW13      29.84S                  
$$

ANZ081-ANZ082-ANZ150-NHZ014-MEZ023>029-242100-
COASTAL MARINE OBSERVATIONS
  
STATION/POSITION TIME  TEMP    WIND        PRES    WAVE
                       AIR SEA DIR/SP/G            HT/PER
                 (UTC) (F)     (DEG/KT/KT) (MB)    (FT/S)
ISLE OF SHOALS   1900   60     120/ 12/ 13 1010.0R
JEFFREYS LEDGE   1938      60                N/A     1/10
CASHES LEDGE BUO 1950   58 56  150/ 10/ 10 1011.4F   1/ 8
GEORGES BANK BUO 1950   58 54  310/  2/  2 1011.4R   3/ 5
$$

.............KEY..............
   WCI - WIND CHILL
   TC  - TEMPERATURE IN CELSIUS
   VSB - VISIBILITY IN MILES
   HX  - HEAT INDEX
   FAIR- INDICATES FEW OR NO CLOUDS BELOW 12,000 FT, WITH NO 
         SIGNIFICANT WEATHER AND/OR OBSTRUCTIONS TO VISIBILITY.